Location: Centerville
(32.8776°N, 96.6203°W)
Time: 02:26:08
(UTC+00:00)

IRIDIUM 114 - Pass Details

Date: 17 June 2021
Orbit: 776 x 779 km, 86.4° (Epoch: 27 July)

Event Time Altitude Azimuth Distance (km) Brightness Sun altitude
Rises 09:31:51 0° 352° (N) 3,263 8.1 -18.6°
Reaches altitude 10° 09:34:14 10° 349° (NNW) 2,332 7.2 -18.3°
Maximum altitude 09:39:19 56° 272° (W) 924 4.4 -17.5°
Enters shadow 09:42:00 27° 205° (SSW) 1,457 5.2 -17.1°
